Location: Bucharest
(44.4268°N, 26.1025°E)
Time: 06:50:25
(UTC+03:00)

Oscar 19 - Pass Details

Date: 07 July 2022
Orbit: 773 x 790 km, 98.8° (Epoch: 14 August)

Event Time Altitude Azimuth Distance (km) Brightness Sun altitude
Rises 03:31:31 0° 31° (NNE) 3,259 15.7 -16.6°
Reaches altitude 10° 03:34:47 10° 53° (NE) 2,326 14.2 -16.3°
Maximum altitude 03:37:50 16° 90° (E) 1,948 13.1 -16.0°
Drops below altitude 10° 03:40:53 10° 127° (SE) 2,318 13.1 -15.7°
Sets 03:44:07 0° 149° (SSE) 3,241 13.6 -15.4°
